sat.trackr.live / text

‹ back to catalog

STARLINK-4694

NORAD 53708 · 2022-107J

PAYLOAD ACTIVE UNKNOWN

§ Identity

Operator
Country
US
Launch date
2022-09-05
Launch site
AFETR
Launch vehicle
Mass (kg)
RCS (m²)

Purposes: comms

External: N2YO · Heavens-Above · Gunter

§ Orbital elements

Epoch: 2026-05-24T23:31:13.360800Z

Period
95.44 min
Inclination
53.2139°
Eccentricity
0.0002193
Mean motion
15.08797870 rev/d
Perigee alt
538.4 km
Apogee alt
541.4 km
Semi-major
6,918.0 km
B*
1.9429e-4
RAAN
246.5041°
Arg perigee
85.3715°
Mean anomaly
274.7527°
Rev number
20,658

§ Raw data

STARLINK-46941 53708U 22107J   26144.98001575  .00002802  00000+0  19429-3 0  99962 53708  53.2139 246.5041 0002193  85.3715 274.7527 15.08797870206581

JSON: /api/v1/satellites/53708 · /tle

For live sub-satellite position, see the globe view (requires WebGL).

§ Visibility from observer

Set your observer location to see the next 7 days of passes ≥ 10°. The values pass through the URL so the page stays shareable.

No JS? Fill the form by hand. The geolocation button needs JavaScript.